Monticello, KY

6:00 PM EST on February 22, 2017 (GMT -0500)
Wayne County

Weather History for KEKQ - March, 2013

Change the Weather History Date:

Sunday, March 17, 2013

  Actual Average Record
Temperature  
Mean Temperature 45 °F -  
Max Temperature 53 °F 57 °F 78 °F (1982)
Min Temperature 37 °F 33 °F 16 °F (1988)
Degree Days  
Heating Degree Days 20    
Moisture  
Dew Point 44 °F    
Average Humidity 93    
Maximum Humidity 100    
Minimum Humidity 71    
Precipitation  
Precipitation 0.13 in - - ()
Sea Level Pressure  
Sea Level Pressure 29.98 in    
Wind  
Wind Speed 5 mph (SW)    
Max Wind Speed 16 mph    
Max Gust Speed 23 mph    
Visibility 4 miles    
Events Rain    
Averages and records for this station are not official NWS values.
T = Trace of Precipitation, MM = Missing Value Source: NWS Daily Summary

Daily Weather History Graph

Daily Weather History Graph

Search for Another Location

Airport or City:

Trip Planner

Search our weather history database for the weather conditions in past years. The results will help you decide how hot, cold, wet, or windy it might be!

Date:

Astronomy

Mar. 17, 2013 Rise Set
Actual Time 6:47 AM CDT 6:48 PM CDT
Civil Twilight 6:21 AM CDT 7:14 PM CDT
Nautical Twilight 5:51 AM CDT 7:44 PM CDT
Astronomical Twilight 5:20 AM CDT 8:15 PM CDT
Moon 10:07 AM CDT (3/17) No Moon Set
Length of Visible Light 12h 53m
Length of Day
12h 01m
Waxing Crescent, 31% of the Moon is Illuminated
Mar 17
Waxing Crescent
Mar 19
First Quarter
Mar 27
Full
Apr 2
Last Quarter
Apr 10
New

Hourly Weather History & Observations

Time (CDT) Temp. Windchill Dew Point Humidity Pressure Visibility Wind Dir Wind Speed Gust Speed Precip Events Conditions
12:23 AM 51.8 °F - 46.4 °F 82% 29.97 in 1.8 mi SW 4.6 mph - 0.02 in Rain Heavy Rain
12:30 AM 50.0 °F - 46.4 °F 87% 29.96 in 2.0 mi SW 9.2 mph - 0.02 in Rain Light Rain
12:39 AM 50.0 °F - 46.4 °F 87% 29.95 in 4.0 mi WSW 6.9 mph - 0.02 in Rain Light Rain
12:56 AM 48.9 °F - 46.9 °F 93% 29.98 in 2.5 mi Calm Calm - 0.03 in Rain Rain
1:05 AM 48.2 °F - 46.4 °F 93% 29.98 in 2.0 mi Calm Calm - 0.01 in Rain Light Rain
1:18 AM 48.2 °F - 48.2 °F 100% 29.97 in 3.0 mi SSW 5.8 mph - 0.01 in Rain Light Rain
1:35 AM 48.2 °F - 46.4 °F 93% 29.98 in 1.8 mi Calm Calm - 0.03 in Rain Heavy Rain
1:56 AM 47.8 °F - 47.8 °F 100% 29.98 in 2.0 mi Calm Calm - 0.04 in Rain Light Rain
2:05 AM 48.2 °F - 48.2 °F 100% 29.97 in 1.2 mi Calm Calm - 0.02 in Rain Rain
2:16 AM 48.2 °F - 48.2 °F 100% 29.97 in 1.8 mi Calm Calm - 0.02 in Rain Light Rain
2:28 AM 48.2 °F - 48.2 °F 100% 29.98 in 2.0 mi Calm Calm - 0.02 in Rain Light Rain
2:35 AM 48.2 °F - 48.2 °F 100% 29.96 in 1.5 mi Calm Calm - 0.03 in Rain Light Rain
2:56 AM 47.8 °F - 47.8 °F 100% 29.96 in 2.5 mi WSW 4.6 mph - 0.03 in   Overcast
3:13 AM 48.2 °F - 46.4 °F 93% 29.94 in 3.0 mi West 5.8 mph - 0.00 in   Overcast
3:22 AM 48.2 °F - 46.4 °F 93% 29.94 in 2.5 mi Calm Calm - 0.00 in Rain Light Rain
3:35 AM 48.2 °F - 46.4 °F 93% 29.93 in 3.0 mi Calm Calm - 0.00 in Rain Light Rain
3:42 AM 48.2 °F - 48.2 °F 100% 29.94 in 2.5 mi Calm Calm - 0.00 in Rain Light Rain
3:56 AM 47.8 °F - 47.8 °F 100% 29.94 in 2.5 mi Calm Calm - 0.00 in   Mostly Cloudy
4:56 AM 46.9 °F - 46.9 °F 100% 29.96 in 2.0 mi SSW 8.1 mph - 0.00 in Rain Light Rain
5:44 AM 46.4 °F 42.9 °F 46.4 °F 100% 29.99 in 2.5 mi SSW 6.9 mph - 0.00 in   Overcast
5:56 AM 45.9 °F 42.3 °F 45.0 °F 97% 30.01 in 3.0 mi South 6.9 mph - 0.00 in   Overcast
6:27 AM 46.4 °F 42.9 °F 44.6 °F 93% 29.99 in 2.5 mi SW 6.9 mph - N/A   Overcast
6:56 AM 45.9 °F 41.7 °F 45.0 °F 97% 30.02 in 2.5 mi SW 8.1 mph - N/A   Overcast
7:15 AM 44.6 °F 40.2 °F 44.6 °F 100% 30.01 in 1.8 mi SSW 8.1 mph - N/A   Overcast
7:56 AM 43.9 °F 37.9 °F 43.0 °F 97% 30.04 in 1.8 mi SSW 11.5 mph - N/A   Overcast
8:03 AM 44.6 °F 38.8 °F 42.8 °F 93% 30.03 in 2.0 mi SSW 11.5 mph - N/A   Overcast
8:56 AM 43.0 °F 37.7 °F 41.9 °F 96% 30.07 in 2.5 mi SW 9.2 mph - N/A   Overcast
9:26 AM 42.8 °F 38.6 °F 42.8 °F 100% 30.05 in 2.5 mi SW 6.9 mph - N/A   Overcast
9:56 AM 43.0 °F 37.7 °F 41.9 °F 96% 30.06 in 2.5 mi SW 9.2 mph - N/A   Overcast
10:56 AM 43.9 °F 38.3 °F 43.0 °F 97% 30.04 in 2.5 mi SW 10.4 mph - N/A   Overcast
11:17 AM 44.6 °F 40.2 °F 44.6 °F 100% 30.02 in 3.0 mi SW 8.1 mph - N/A   Overcast
11:49 AM 44.6 °F 39.7 °F 44.6 °F 100% 30.02 in 3.0 mi SSW 9.2 mph - N/A   Overcast
11:56 AM 45.9 °F 41.2 °F 43.9 °F 93% 30.04 in 3.0 mi SSW 9.2 mph - N/A   Overcast
12:49 PM 48.2 °F - 44.6 °F 87% 30.00 in 5.0 mi WSW 9.2 mph - N/A   Overcast
12:56 PM 48.9 °F - 43.9 °F 83% 30.01 in 6.0 mi WSW 15.0 mph - N/A   Haze
1:45 PM 50.0 °F - 44.6 °F 82% 29.96 in 7.0 mi SW 8.1 mph - N/A   Mostly Cloudy
1:56 PM 50.0 °F - 43.9 °F 79% 29.98 in 8.0 mi SW 6.9 mph - N/A   Overcast
2:16 PM 51.8 °F - 44.6 °F 76% 29.96 in 8.0 mi SW 9.2 mph - N/A   Overcast
2:36 PM 53.6 °F - 44.6 °F 72% 29.94 in 9.0 mi SW 8.1 mph - N/A   Mostly Cloudy
2:56 PM 52.9 °F - 43.9 °F 71% 29.96 in 9.0 mi SSW 9.2 mph - N/A   Partly Cloudy
3:56 PM 50.9 °F - 41.9 °F 71% 29.97 in 10.0 mi South 16.1 mph 23.0 mph N/A   Mostly Cloudy
4:30 PM 46.4 °F 40.7 °F 41.0 °F 81% 29.95 in 10.0 mi SSW 12.7 mph - N/A   Mostly Cloudy
4:56 PM 43.9 °F 37.9 °F 39.9 °F 86% 29.98 in 10.0 mi SSW 11.5 mph - 0.00 in Rain Light Rain
5:27 PM 42.8 °F 37.5 °F 41.0 °F 93% 29.95 in 2.0 mi SSW 9.2 mph - 0.02 in Rain Light Rain
5:49 PM 42.8 °F 36.6 °F 41.0 °F 93% 29.95 in 4.0 mi SW 11.5 mph - 0.02 in Rain Light Rain
5:56 PM 41.9 °F 36.9 °F 41.0 °F 97% 29.97 in 5.0 mi SW 8.1 mph - 0.02 in Rain Light Rain
6:56 PM 41.9 °F 37.5 °F 41.9 °F 100% 29.97 in 6.0 mi SW 6.9 mph - 0.01 in Rain Light Rain
7:56 PM 41.9 °F 36.3 °F 41.0 °F 97% 29.96 in 9.0 mi West 9.2 mph - 0.00 in   Mostly Cloudy
8:56 PM 41.0 °F 35.2 °F 39.9 °F 96% 29.95 in 9.0 mi SW 9.2 mph - N/A   Mostly Cloudy
9:56 PM 39.9 °F 35.8 °F 39.9 °F 100% 29.95 in 7.0 mi WSW 5.8 mph - N/A   Clear
10:56 PM 37.9 °F - 37.9 °F 100% 29.94 in 5.0 mi Calm Calm - N/A   Clear
11:56 PM 37.9 °F - 37.9 °F 100% 29.93 in 5.0 mi Calm Calm - N/A   Clear